Weather History for LGAV - February, 2014

Change the Weather History Date:

Sunday, February 2, 2014

  Actual Average (LGEL) Record (LGEL)
Temperature  
Mean Temperature 48 °F -  
Max Temperature 51 °F 54 °F 64 °F (2004)
Min Temperature 46 °F 39 °F 33 °F (2011)
Degree Days  
Heating Degree Days 16    
Moisture  
Dew Point 39 °F    
Average Humidity 69    
Maximum Humidity 76    
Minimum Humidity 62    
Precipitation  
Precipitation 0.00 in - - ()
Sea Level Pressure  
Sea Level Pressure 30.01 in    
Wind  
Wind Speed 21 mph ()    
Max Wind Speed 30 mph    
Max Gust Speed 44 mph    
Visibility 6.2 miles    
Events      
Averages and records for this station are not official NWS values.
T = Trace of Precipitation, MM = Missing Value Source: Averaged Metar Reports

Daily Weather History Graph

Daily Weather History Graph

Search for Another Location

Airport or City:

Trip Planner

Search our weather history database for the weather conditions in past years. The results will help you decide how hot, cold, wet, or windy it might be!

Date:

Astronomy

Feb. 02, 2014 Rise Set
Actual Time 7:27 AM EET 5:48 PM EET
Civil Twilight 7:00 AM EET 6:16 PM EET
Nautical Twilight 6:28 AM EET 6:47 PM EET
Astronomical Twilight 5:57 AM EET 7:18 PM EET
Moon 8:46 AM EET 9:06 PM EET
Length of Visible Light 11h 15m
Length of Day
10h 20m
Waxing Crescent, 9% of the Moon is Illuminated
Feb 2
Waxing Crescent
Feb 6
First Quarter
Feb 15
Full
Feb 22
Last Quarter
Mar 1
New

Hourly Weather History & Observations

Time (EET) Temp. Windchill Dew Point Humidity Pressure Visibility Wind Dir Wind Speed Gust Speed Precip Events Conditions
12:20 AM 48.2 °F - 39.2 °F 71% 30.09 in 6.2 mi NNE 24.2 mph - N/A   Mostly Cloudy
12:50 AM 48.2 °F - 39.2 °F 71% 30.09 in 6.2 mi North 21.9 mph 34.5 mph N/A   Mostly Cloudy
1:20 AM 48.2 °F - 39.2 °F 71% 30.09 in 6.2 mi NNE 23.0 mph - N/A   Mostly Cloudy
1:50 AM 48.2 °F - 39.2 °F 71% 30.06 in 6.2 mi NNE 23.0 mph - N/A   Mostly Cloudy
2:20 AM 48.2 °F - 39.2 °F 71% 30.06 in 6.2 mi NNE 25.3 mph - N/A   Mostly Cloudy
2:50 AM 48.2 °F - 39.2 °F 71% 30.06 in 6.2 mi NNE 26.5 mph - N/A   Mostly Cloudy
3:20 AM 48.2 °F - 39.2 °F 71% 30.06 in 6.2 mi NNE 27.6 mph - N/A   Mostly Cloudy
3:50 AM 46.4 °F 37.9 °F 39.2 °F 76% 30.04 in 6.2 mi NNE 25.3 mph - N/A   Mostly Cloudy
4:20 AM 48.2 °F - 39.2 °F 71% 30.04 in 6.2 mi NNE 24.2 mph - N/A   Mostly Cloudy
4:50 AM 46.4 °F 37.9 °F 39.2 °F 76% 30.04 in 6.2 mi NNE 25.3 mph - N/A   Mostly Cloudy
5:20 AM 48.2 °F - 39.2 °F 71% 30.04 in 6.2 mi NNE 25.3 mph - N/A   Mostly Cloudy
5:50 AM 48.2 °F - 39.2 °F 71% 30.04 in 6.2 mi NNE 24.2 mph - N/A   Mostly Cloudy
6:20 AM 48.2 °F - 39.2 °F 71% 30.04 in 6.2 mi NNE 23.0 mph - N/A   Mostly Cloudy
6:50 AM 48.2 °F - 39.2 °F 71% 30.01 in 6.2 mi North 23.0 mph - N/A   Mostly Cloudy
7:20 AM 48.2 °F - 39.2 °F 71% 30.04 in 6.2 mi North 23.0 mph - N/A   Mostly Cloudy
7:50 AM 48.2 °F - 39.2 °F 71% 30.04 in 6.2 mi North 19.6 mph - N/A   Mostly Cloudy
8:20 AM 48.2 °F - 39.2 °F 71% 30.04 in 6.2 mi North 17.3 mph - N/A   Mostly Cloudy
8:50 AM 48.2 °F - 39.2 °F 71% 30.04 in 6.2 mi North 18.4 mph - N/A   Mostly Cloudy
9:20 AM 48.2 °F - 39.2 °F 71% 30.01 in 6.2 mi NNE 20.7 mph - N/A   Mostly Cloudy
9:50 AM 48.2 °F - 39.2 °F 71% 30.04 in 6.2 mi North 19.6 mph - N/A   Mostly Cloudy
10:20 AM 48.2 °F - 39.2 °F 71% 30.01 in 6.2 mi North 20.7 mph - N/A   Mostly Cloudy
10:50 AM 50.0 °F - 39.2 °F 66% 30.01 in 6.2 mi North 17.3 mph 28.8 mph N/A   Mostly Cloudy
11:20 AM 50.0 °F - 39.2 °F 66% 30.04 in 6.2 mi North 16.1 mph - N/A   Mostly Cloudy
11:50 AM 50.0 °F - 39.2 °F 66% 30.04 in 6.2 mi North 19.6 mph - N/A   Mostly Cloudy
12:20 PM 50.0 °F - 39.2 °F 66% 30.01 in 6.2 mi North 19.6 mph - N/A   Mostly Cloudy
12:50 PM 50.0 °F - 39.2 °F 66% 30.01 in 6.2 mi NNE 21.9 mph - N/A   Mostly Cloudy
1:20 PM 50.0 °F - 39.2 °F 66% 29.98 in 6.2 mi North 21.9 mph 33.4 mph N/A   Mostly Cloudy
1:50 PM 50.0 °F - 39.2 °F 66% 29.98 in 6.2 mi NNE 21.9 mph - N/A   Overcast
2:20 PM 51.8 °F - 39.2 °F 62% 29.98 in 6.2 mi NNE 21.9 mph - N/A   Overcast
2:50 PM 50.0 °F - 41.0 °F 71% 29.95 in 6.2 mi NNE 26.5 mph - N/A   Mostly Cloudy
3:20 PM 50.0 °F - 41.0 °F 71% 29.95 in 6.2 mi NNE 25.3 mph - N/A   Overcast
3:50 PM 50.0 °F - 41.0 °F 71% 29.95 in 6.2 mi NNE 29.9 mph 43.7 mph N/A   Overcast
4:20 PM 50.0 °F - 41.0 °F 71% 29.95 in 6.2 mi NE 29.9 mph - N/A   Overcast
4:50 PM 50.0 °F - 41.0 °F 71% 29.98 in 6.2 mi NNE 25.3 mph - N/A   Overcast
5:20 PM 50.0 °F - 41.0 °F 71% 29.98 in 6.2 mi NNE 21.9 mph - N/A   Overcast
5:50 PM 50.0 °F - 39.2 °F 66% 29.98 in 6.2 mi North 19.6 mph 34.5 mph N/A   Overcast
6:20 PM 50.0 °F - 39.2 °F 66% 29.98 in 6.2 mi North 21.9 mph 35.7 mph N/A   Overcast
6:50 PM 50.0 °F - 39.2 °F 66% 29.98 in 6.2 mi NNE 21.9 mph 33.4 mph N/A   Overcast
7:20 PM 50.0 °F - 39.2 °F 66% 29.98 in 6.2 mi North 19.6 mph - N/A   Mostly Cloudy
7:50 PM 50.0 °F - 39.2 °F 66% 29.98 in 6.2 mi North 19.6 mph - N/A   Mostly Cloudy
8:20 PM 50.0 °F - 37.4 °F 62% 30.01 in 6.2 mi North 20.7 mph 34.5 mph N/A   Mostly Cloudy
8:50 PM 50.0 °F - 37.4 °F 62% 30.01 in 6.2 mi North 18.4 mph - N/A   Mostly Cloudy
9:20 PM 50.0 °F - 37.4 °F 62% 29.98 in 6.2 mi North 17.3 mph - N/A   Mostly Cloudy
9:50 PM 50.0 °F - 37.4 °F 62% 29.98 in 6.2 mi North 18.4 mph 29.9 mph N/A   Mostly Cloudy
10:20 PM 50.0 °F - 37.4 °F 62% 30.01 in 6.2 mi North 18.4 mph - N/A   Mostly Cloudy
10:50 PM 50.0 °F - 39.2 °F 66% 30.01 in 6.2 mi North 18.4 mph - N/A   Mostly Cloudy
11:20 PM 50.0 °F - 39.2 °F 66% 29.98 in 6.2 mi NNE 25.3 mph - N/A   Mostly Cloudy
11:50 PM 50.0 °F - 39.2 °F 66% 29.98 in 6.2 mi NNE 26.5 mph - N/A   Mostly Cloudy